COSMOS 249 DEB, 15535

Orbit data source: Space-Track

COSMOS 249 DEB, 15535 is space debris in LEO originally from a launch on Sun, 20 Oct 1968 UTC launched from the Tyuratam Missile And Space Complex (TTMTR). Debris objects in space refer to the collection of defunct objects orbiting the Earth. Examples of debris include non-operational satellites, rocket bodies, and fragments generated from explosions, collisions, or faulty payload assembly.

Loading next visibility...
Identifier
15535, 1968-091CY
Orbit
LEO
Country
Flag of CISCIS
Related business
Manufacturer
Unknown
Mission
Spacecraft
Bus & Motor
Unknown
Mass
Unknown
Launch date (UTC)
1968-10-20 (57 years ago)
Launch vehicle
Unknown
Launch site
Tyuratam Missile And Space Complex (TTMTR)
Object type
Payload
Rocket body
Debris
Shape & HBR
Unknown shape, 0.1 m
Radar Cross Section
Small (<0.1 m²)

Expand to show TLE details & history
Last TLE update: 16 hours ago

TLE from 16 hours ago
0 COSMOS 249 DEB
1 15535U 68091CY  25286.62652729  .00018170  00000-0  19894-2 0  9995
2 15535  62.3965   8.3107 0371812 140.8307 222.0316 14.48538218921031
Epoch: 2025-10-13T15:02Z
TLE epoch observation values (Epoch: 2025-10-13T15:02:11.957Z)
Latitude
-0.00003°
Longitude
120.33426°
Altitude
932.763 km
Speed
7.281 km/s
True Right ascension
00h 33m 14s
True Declination
0° 00' 00"
Sunlit
Object was in full shadow at epoch
Visualization orbit readout
Latitude
Unknown
Longitude
Unknown
Altitude
Unknown
Speed
Unknown
Apparent Right ascension
Unknown
Apparent Declination
Unknown
Sunlit
N/A
Visualization observer readout
Local Sidereal Time
01:23:19
Azimuth
Unknown
Elevation
Unknown
Doppler factor
Unknown
Orbital elements
Apogee altitude
993.591 km
Perigee altitude
465.062 km
Semi-major axis
7,107.463 km
Eccentricity
0.03718
Inclination
62.3965°
RAAN
8.3107°
Arg. of periapsis
140.8307°
True anomaly
219.27529°
Mean anomaly
222.0316°
Eccentric anomaly
220.644°
Mean motion
3.62219 °/min
Orbital period
99.39 mins
BSTAR
0.0019894
Loading maneuver chart data...
Computing Atmospheric mass density...
Loading historical data...
Loading historical data...
Loading historical data...
Loading historical data...
Loading historical data...
Loading historical data...
Loading historical data...

Documentation

Showing up to 5 results
|